Weather in Aur

Russia / Jewish Autonomous Oblast     48°37′38″N   133°26′11″E
temp.,
°C
wind,
m/s
gust,
m/s
humid.,
%
clouds,
%
prec.,
mm/h
press.,
hPa
HPBL,
m
25 february, thu
thu2501:00−21wnw33820 0.0 102525
04:00−22wnw33830 0.0 102521
07:00−23wnw22843 0.0 102520
10:00−20wnw118310 0.0 102592
13:00−17sw227329 0.0 1024310
16:00−15ssw237628 0.0 1023353
19:00−19ssw238410 0.0 102420
22:00−20wsw118938 0.0 102320
26 february, fri
fri2601:00−20w239111 0.0 102521
04:00−21wnw348827 0.0 102533
07:00−21wnw348596 0.0 102640
10:00−19wnw348383 0.0 1027145
13:00−15wnw237431 0.0 1028402
16:00−13wsw237717 0.0 1028227
19:00−17wsw12800 0.0 103020
22:00−17w22820 0.0 103221
27 february, sat
sat2701:00−18wnw22870 0.0 103320
04:00−19w23860 0.0 103420
07:00−20sw228671 0.0 103420
10:00−18s238881 0.0 1034131
13:00−15sse348499 0.0 1032340
16:00−14se348699 0.0 1028426
19:00−15ene3594100 0.0 1025115
22:00−15ene3595100 0.0 1022137
28 february, sun
sun2801:00−13ene3396100 0.6 1018106
04:00−12nnw1296100 1.6 101626
07:00−14w3593100 0.1 101697
10:00−12w4788100 0.1 1018267
13:00−7w81167100 0.0 1020763
16:00−9w91366100 0.0 1022611
19:00−12w6127249 0.0 1024227
22:00−16wnw588134 0.0 1026116
1 march, mon
mon101:00−18w45820 0.0 102774
04:00−20w47850 0.0 1029106
07:00−22w46850 0.0 103092
10:00−20w59780 0.0 1031268
13:00−15w710580 0.0 10311057
16:00−13w710592 0.0 10311695
19:00−17w477230 0.0 1030104
22:00−19w468019 0.0 103290